This is the latest recevied weather packets stored in our database for station/object KP4OZ. If no packets are shown the sender has not sent any weather packets the latest 10 day(s).
| Time | Temp. | Humidity | Pressure | Rain* | Wind** | Luminosity | Snow |
|---|---|---|---|---|---|---|---|
| 1777827861 | 30.56° C | 67% | 1016.7 hPa | 0 mm | - | - | - |
| 1777827558 | 30° C | 69% | 1017 hPa | 0 mm | - | - | - |
| 1777827256 | 30° C | 69% | 1017 hPa | 0 mm | - | - | - |
| 1777826951 | 30° C | 70% | 1017 hPa | 0 mm | - | - | - |
| 1777826649 | 29.44° C | 70% | 1017.1 hPa | 0 mm | - | - | - |
| 1777826345 | 30° C | 68% | 1017.2 hPa | 0 mm | - | - | - |
| 1777826043 | 30° C | 68% | 1017.1 hPa | 0 mm | - | - | - |
| 1777825740 | 30° C | 68% | 1017.2 hPa | 0 mm | - | - | - |
| 1777825438 | 30° C | 67% | 1017.2 hPa | 0 mm | - | - | - |
| 1777825134 | 30° C | 66% | 1017 hPa | 0 mm | - | - | - |
| 1777824830 | 30° C | 68% | 1017.1 hPa | 0 mm | - | - | - |
| 1777824527 | 30.56° C | 65% | 1017.4 hPa | 0 mm | - | - | - |
| 1777824224 | 30.56° C | 67% | 1017.3 hPa | 0 mm | - | - | - |
| 1777823919 | 30° C | 69% | 1017.3 hPa | 0 mm | - | - | - |
| 1777823617 | 30.56° C | 66% | 1017.5 hPa | 0 mm | - | - | - |
| 1777823314 | 30.56° C | 65% | 1017.4 hPa | 0 mm | - | - | - |
| 1777823011 | 30.56° C | 67% | 1017.5 hPa | 0 mm | - | - | - |
| 1777822709 | 30.56° C | 66% | 1017.6 hPa | 0 mm | - | - | - |
| 1777822407 | 30.56° C | 66% | 1017.7 hPa | 0 mm | - | - | - |
| 1777822104 | 30° C | 69% | 1017.8 hPa | 0 mm | - | - | - |
| 1777821802 | 30° C | 67% | 1017.8 hPa | 0 mm | - | - | - |
| 1777821499 | 29.44° C | 70% | 1017.8 hPa | 0 mm | - | - | - |
| 1777821196 | 28.89° C | 72% | 1018.1 hPa | 0 mm | - | - | - |
| 1777820894 | 28.89° C | 73% | 1018.1 hPa | 0 mm | - | - | - |
| 1777820589 | 28.89° C | 73% | 1018.3 hPa | 0 mm | - | - | - |
* Rain latest hour (hover to see other rain measurements)
** Current wind speed in m/s (hover to see current wind gust speed)